Погода в Гусином Озере

Россия / Республика Бурятия     51°07′14″N   106°16′15″E
темп.,
°C
ветер,
м/с
пор.,
м/с
влажн.,
%
обл.,
%
осадки,
мм/ч
давл.,
гПа
погр.,
м
25 февраля, чт
чт2523:00−18з019847 0.0 102820
02:00−19юз0110066 0.0 102720
05:00−19ююв0110099 0.1 102420
08:00−20з01100100 0.1 102420
11:00−15вюв118647 0.0 1023219
14:00−11в118369 0.0 1019318
17:00−10ссв2289100 0.0 101779
20:00−13ссз1193100 0.0 101520
26 февраля, пт
пт2623:00−14с0192100 0.0 101221
02:00−14ссз1194100 0.0 101220
05:00−12ссз228998 0.0 101526
08:00−12с228599 0.0 101725
11:00−9с3471100 0.0 1018635
14:00−8с2366100 0.0 1016938
17:00−9ссв4591100 1.2 1018515
20:00−13с3679100 1.3 1021132
27 февраля, сб
сб2723:00−15ссз3380100 0.0 102460
02:00−17ссз2476100 0.1 1027176
05:00−21зюз2277100 0.0 103321
08:00−24з227786 0.0 103620
11:00−17з24620 0.0 1037619
14:00−15ююз235226 0.0 10351305
17:00−15ююз346970 0.0 1035483
20:00−21ююз117871 0.0 103820
28 февраля, вс
вс2823:00−22ссз118395 0.0 104020
02:00−22сз009097 0.0 104020
05:00−24сз009690 0.0 104120
08:00−25ссв019792 0.0 104320
11:00−20вюв1189100 0.0 1042284
14:00−17ююв2279100 0.1 1039520
17:00−15ююв127978 0.0 1038297
20:00−22юз119054 0.0 104120
1 марта, пн
пн123:00−22зсз008975 0.0 104220
02:00−23юз118987 0.0 104220
05:00−25юз119012 0.0 104120
08:00−26ююз11896 0.0 104220
11:00−20ююв22820 0.0 1039271
14:00−16юв227821 0.0 1035461
17:00−15ююв227854 0.0 1032294
20:00−22юз118727 0.0 103320